Wind_Speed
18 15 14 14 10 11 16 20 20 21 23 22 24 24 23 22 20 20 22 23 24 24 23 22 22 22 22 23 24 24 24 25 24 23 22 22 21 22 22 22 21 21 21 22
11 8 8 9 10 10 13 16 17 18 18 18 20 20 19 20 21 22 22 23 23 23 22 21 21 21 21 23 23 24 24 24 23 24 24 23 23 23 23 23 23 23 23 22
5 4 7 8 8 8 9 10 11 12 12 11 11 12 13 14 15 16 17 17 17 18 18 18 18 19 20 20 21 22 23 23 23 24 24 24 24 24 24 24 25 25 25 24
1 5 5 7 7 6 8 6 6 5 4 4 5 6 6 6 7 8 8 9 10 11 13 14 15 16 18 18 19 21 22 22 22 23 24 25 25 25 25 25 25 26 26 26
0 3 3 5 9 8 7 7 5 3 3 3 2 2 3 1 1 1 2 3 4 6 8 9 12 14 16 17 18 19 20 21 23 24 25 26 26 25 25 25 25 26 26 26
2 3 5 4 7 7 7 7 6 4 4 3 2 1 3 4 4 4 3 2 1 4 6 9 11 14 16 17 18 19 20 22 23 25 25 25 24 23 23 23 23 23 24 25
2 3 4 4 4 5 7 7 6 4 3 3 1 2 4 5 5 5 4 3 4 6 8 11 13 15 16 16 17 19 21 22 23 23 23 22 21 21 20 20 21 21 22 23
3 3 3 3 4 6 6 5 5 5 3 2 3 3 4 4 4 4 4 5 7 9 11 13 14 14 15 16 17 19 21 22 22 22 21 20 19 18 18 19 20 21 22 23
4 3 2 3 4 6 7 7 6 5 1 3 4 3 3 4 4 4 6 7 9 11 12 12 13 14 15 16 18 19 20 21 21 20 19 17 17 17 17 18 20 21 22 23
5 4 3 4 4 5 7 7 6 4 2 4 4 3 3 3 4 6 7 10 11 12 12 12 13 14 15 17 18 19 19 19 19 18 17 17 16 16 16 17 19 19 20 22
5 4 4 4 4 5 7 7 5 4 4 5 4 3 3 4 5 7 9 11 12 12 12 12 13 14 15 16 17 18 19 19 19 18 17 16 14 14 15 16 17 18 18 18
7 3 4 4 4 5 8 7 5 4 4 4 3 2 3 5 7 8 10 12 12 12 12 13 14 14 15 17 18 19 20 19 18 16 15 13 13 13 14 14 15 15 15 14
10 3 2 4 5 6 8 8 6 4 4 3 2 1 3 5 7 9 11 11 11 12 13 13 14 15 16 17 19 20 20 18 16 14 13 12 12 12 12 13 13 14 13 12
14 4 2 5 7 7 8 8 6 5 5 4 2 1 3 5 8 9 10 11 11 12 13 14 15 15 16 17 18 18 17 15 14 12 11 11 11 11 11 12 12 13 12 11
18 7 2 5 8 8 8 8 6 5 5 4 3 2 3 5 7 9 10 11 12 13 14 14 15 15 16 16 17 16 15 14 13 12 11 11 11 11 12 12 12 12 11 11
21 11 1 5 9 9 9 8 6 6 6 5 5 4 4 5 7 8 9 10 12 13 14 14 15 15 15 16 16 15 14 14 13 13 12 13 13 13 13 13 13 12 12 11
26 16 5 4 9 10 10 9 8 7 8 7 7 6 5 5 6 8 9 10 11 13 13 14 14 15 15 15 15 14 14 14 14 14 14 15 15 15 15 15 15 14 14 13
28 21 10 2 7 11 12 10 8 8 8 9 9 8 7 6 6 7 8 9 11 12 12 13 14 14 15 15 15 14 14 15 15 15 15 16 16 16 17 16 16 16 15 15
30 25 17 7 3 10 13 12 10 9 9 10 10 10 8 8 7 7 7 8 9 10 11 12 13 13 14 15 15 15 15 15 15 15 15 15 16 16 17 17 17 17 17 17
28 28 22 14 6 6 11 14 13 11 10 10 12 12 10 9 8 7 6 7 8 9 9 10 11 12 13 13 14 14 14 14 14 14 14 14 15 15 16 16 17 17 18 18
25 27 26 20 12 7 9 13 15 14 12 11 13 13 12 11 10 8 7 6 6 6 7 8 9 10 11 11 12 12 12 12 12 12 12 13 13 14 14 15 16 17 17 18
22 24 25 24 19 13 10 12 15 16 16 15 14 15 15 14 12 10 8 6 5 5 5 6 7 8 9 9 9 10 10 10 11 11 11 11 12 12 13 13 14 15 16 16
19 21 23 24 23 20 15 13 15 17 18 18 18 17 16 16 15 13 11 8 6 4 4 5 5 6 6 7 7 7 8 8 9 10 10 10 11 12 12 12 13 13 14 14
18 19 21 23 24 24 21 17 15 17 18 20 21 20 19 19 17 16 14 11 8 6 5 4 4 4 5 5 4 4 5 6 7 8 9 9 10 11 11 11 12 12 12 13
18 19 20 22 23 24 24 21 17 17 18 20 22 23 22 21 20 19 17 15 12 9 7 5 4 4 4 4 3 2 2 3 4 6 7 8 9 9 10 10 11 12 12 13
20 20 20 21 22 24 25 25 21 18 18 20 22 24 24 24 23 22 20 19 16 12 10 8 6 5 5 4 4 3 3 2 2 3 5 6 7 8 8 9 10 11 12 12
24 23 22 22 23 24 25 25 25 21 18 19 21 24 26 26 26 24 23 22 20 17 14 11 9 8 7 6 6 6 5 5 4 4 5 6 6 7 7 8 8 9 10 11
Wind_Direction
289 268 267 267 254 232 234 240 245 249 257 264 265 271 274 275 275 272 269 267 267 268 269 271 275 279 284 288 289 293 296 299 301 302 302 299 295 292 289 287 285 283 278 273
298 256 244 251 249 245 241 245 247 251 259 265 272 275 276 275 272 270 267 263 263 264 268 269 270 275 280 283 288 292 295 297 298 298 298 296 294 291 288 287 286 284 281 277
321 191 185 222 236 240 240 244 245 251 260 267 271 280 282 278 273 268 264 259 256 258 260 262 268 275 280 284 288 291 294 296 297 298 298 297 295 292 289 287 285 284 281 277
37 159 198 205 200 224 232 230 227 230 256 280 292 290 291 287 278 265 254 251 251 253 259 267 275 279 285 289 291 293 297 298 299 299 298 297 296 293 289 287 284 282 280 277
136 182 225 227 230 231 217 214 217 227 273 283 292 308 1 30 90 138 186 222 251 265 273 279 285 291 294 297 298 298 298 300 301 301 299 297 295 292 289 287 283 280 277 275
273 230 235 250 240 236 222 238 227 231 251 246 268 289 50 73 92 97 98 89 324 303 300 300 302 303 303 303 303 302 303 304 303 302 301 299 296 293 290 288 285 281 277 274
298 249 247 260 237 227 232 227 222 232 242 218 173 75 81 80 84 79 64 27 347 329 320 314 311 309 308 307 306 306 307 308 307 305 304 301 297 294 292 290 288 284 280 276
326 284 247 248 257 237 232 224 224 218 193 133 94 90 81 71 64 49 21 356 340 329 322 317 314 313 311 310 310 310 311 312 311 309 307 302 298 296 295 294 292 288 284 280
335 312 275 284 282 237 233 225 221 211 214 115 103 90 72 55 38 16 357 341 331 324 320 317 316 316 314 313 314 314 314 315 314 311 309 305 303 301 300 298 295 291 288 283
335 290 285 296 300 238 217 213 218 227 172 124 103 82 53 29 10 355 343 334 327 323 321 321 321 321 320 319 319 320 319 319 318 316 313 310 308 307 307 307 305 298 294 290
342 287 269 285 289 229 212 210 222 225 158 127 100 70 24 1 354 346 339 334 330 327 325 324 325 326 327 327 327 328 326 323 321 319 317 315 313 313 314 315 317 314 310 305
352 315 260 261 253 218 199 203 215 202 174 138 109 51 4 349 346 342 339 336 334 332 330 329 331 334 335 335 333 332 329 325 322 320 320 319 319 322 324 327 331 333 329 324
359 332 251 230 212 197 199 204 207 207 180 154 137 35 352 344 343 341 340 340 339 338 337 336 337 340 341 340 337 334 332 330 328 326 325 325 327 331 336 341 345 348 350 347
3 347 239 209 199 196 198 198 200 196 187 175 175 340 345 343 343 343 342 343 344 345 344 343 344 345 346 343 340 339 338 339 339 339 339 338 338 341 345 351 356 1 5 10
6 358 258 208 200 195 194 199 200 196 188 195 212 289 328 336 340 343 343 345 348 350 350 349 349 350 350 349 349 349 350 352 355 357 357 357 358 359 0 3 6 10 14 20
9 9 324 207 204 201 198 201 207 204 209 219 230 260 302 321 332 340 344 347 351 354 354 354 354 355 357 358 359 0 4 8 11 13 15 16 18 18 19 20 22 23 26 29
10 11 359 219 203 201 201 206 211 217 225 231 235 245 274 302 319 331 341 349 354 359 0 1 2 3 6 8 9 11 15 19 22 24 27 29 30 32 33 35 36 37 38 40
8 10 9 304 209 204 205 211 220 225 230 234 236 238 254 278 300 318 336 348 356 3 5 7 9 12 14 17 18 20 23 27 30 32 33 34 36 37 39 39 40 40 42 44
7 8 7 358 249 217 215 219 224 228 235 238 236 235 245 261 281 302 326 345 356 4 7 10 13 16 19 21 23 25 30 33 34 35 35 36 38 39 40 41 42 44 46 47
2 5 5 1 337 252 228 224 226 232 240 240 235 235 241 250 265 284 308 333 352 2 7 9 12 15 19 21 23 26 31 34 36 37 37 38 39 41 44 47 49 50 52 53
354 359 2 360 348 318 257 238 232 231 235 237 233 234 238 243 253 266 284 309 336 352 360 5 9 13 17 19 21 24 28 31 33 34 36 39 41 43 46 49 52 53 54 56
343 347 353 356 351 334 301 259 244 238 234 233 232 233 235 239 244 252 261 277 304 329 344 355 3 8 11 14 17 20 24 28 32 34 36 39 42 45 46 48 51 52 52 52
331 335 339 345 348 341 324 291 260 246 238 232 230 231 233 235 238 242 247 255 268 290 312 332 349 357 1 5 11 16 22 28 34 35 36 40 44 44 43 42 42 43 43 43
317 321 325 330 337 341 336 317 285 261 247 237 232 231 231 231 233 236 238 242 247 258 276 296 320 335 343 350 360 10 21 30 35 36 36 37 38 39 37 35 33 32 32 33
302 307 311 316 322 329 334 330 310 279 259 246 236 231 227 227 229 232 233 235 238 243 253 268 284 298 307 317 325 338 359 17 28 31 30 28 30 32 33 32 30 28 28 27
288 293 297 302 308 314 322 328 323 302 272 256 244 232 226 224 225 228 230 231 233 235 241 250 260 267 272 276 278 278 284 306 341 360 4 5 10 18 23 25 24 23 23 22
278 281 286 289 294 300 307 314 320 315 292 267 252 237 228 225 225 227 228 229 230 232 235 240 247 251 253 255 257 258 261 269 285 307 323 334 344 354 2 7 10 11 11 11
Height
5736 5737 5740 5741 5743 5747 5752 5755 5758 5760 5761 5762 5763 5764 5766 5768 5769 5771 5773 5774 5775 5776 5777 5778 5778 5778 5777 5776 5776 5775 5774 5772 5771 5769 5768 5766 5765 5763 5762 5761 5761 5760 5760 5760
5732 5733 5737 5739 5742 5745 5749 5751 5754 5756 5758 5759 5759 5760 5761 5762 5764 5765 5766 5767 5768 5769 5771 5772 5772 5772 5772 5771 5770 5769 5768 5767 5766 5764 5762 5760 5759 5757 5756 5755 5754 5754 5753 5753
5730 5731 5734 5737 5740 5743 5745 5748 5751 5753 5755 5755 5756 5757 5757 5758 5758 5759 5760 5761 5762 5764 5765 5766 5767 5767 5766 5766 5766 5764 5763 5762 5760 5758 5756 5754 5753 5751 5750 5748 5747 5747 5746 5746
5731 5733 5735 5738 5738 5742 5744 5747 5749 5751 5752 5753 5754 5754 5754 5754 5754 5755 5756 5757 5759 5760 5762 5763 5763 5763 5763 5762 5761 5760 5758 5756 5755 5752 5750 5748 5746 5745 5743 5742 5741 5740 5739 5739
5732 5732 5733 5736 5737 5740 5743 5745 5747 5749 5750 5751 5752 5752 5753 5753 5753 5753 5755 5756 5758 5759 5760 5760 5760 5760 5759 5758 5757 5755 5753 5751 5749 5747 5744 5742 5739 5737 5736 5735 5734 5733 5732 5732
5733 5734 5734 5737 5738 5739 5743 5745 5746 5748 5750 5751 5752 5753 5753 5753 5753 5753 5754 5756 5757 5757 5757 5757 5757 5756 5755 5754 5753 5751 5749 5746 5744 5741 5738 5735 5732 5730 5729 5728 5726 5725 5725 5724
5735 5735 5736 5738 5739 5742 5744 5746 5746 5748 5749 5750 5752 5753 5754 5754 5754 5754 5755 5756 5756 5756 5756 5755 5754 5753 5751 5750 5748 5747 5744 5742 5739 5735 5732 5729 5727 5725 5723 5721 5720 5719 5718 5717
5736 5737 5740 5739 5741 5743 5744 5745 5747 5749 5750 5751 5753 5754 5754 5755 5755 5755 5755 5755 5755 5754 5753 5752 5751 5749 5748 5746 5745 5742 5740 5737 5734 5730 5727 5724 5722 5720 5718 5716 5714 5713 5711 5710
5738 5740 5740 5740 5741 5742 5744 5746 5748 5750 5751 5752 5754 5755 5755 5756 5756 5756 5756 5755 5754 5753 5751 5750 5748 5746 5744 5743 5740 5738 5735 5732 5729 5726 5723 5720 5718 5716 5714 5711 5709 5707 5705 5703
5739 5740 5741 5741 5742 5743 5745 5747 5749 5751 5752 5754 5755 5756 5756 5757 5757 5756 5756 5755 5753 5752 5750 5748 5746 5744 5741 5739 5737 5734 5731 5728 5725 5722 5719 5716 5714 5712 5709 5707 5704 5700 5698 5696
5740 5740 5741 5742 5742 5743 5745 5748 5750 5752 5753 5754 5755 5756 5757 5757 5757 5757 5756 5754 5752 5750 5748 5746 5744 5742 5739 5736 5733 5731 5728 5725 5721 5718 5715 5713 5710 5708 5705 5702 5699 5695 5692 5688
5740 5740 5740 5742 5743 5744 5746 5749 5751 5753 5754 5755 5756 5757 5758 5758 5758 5757 5755 5753 5751 5749 5747 5745 5742 5739 5736 5733 5731 5728 5725 5721 5718 5715 5712 5710 5708 5705 5702 5699 5696 5692 5687 5684
5740 5739 5740 5741 5743 5745 5747 5750 5752 5753 5755 5756 5757 5758 5758 5758 5758 5757 5755 5753 5751 5749 5746 5744 5741 5738 5735 5732 5729 5725 5722 5719 5715 5713 5710 5708 5705 5703 5700 5697 5694 5690 5686 5683
5740 5739 5739 5741 5743 5745 5747 5750 5752 5754 5755 5757 5758 5758 5758 5758 5758 5757 5755 5753 5751 5749 5746 5743 5740 5737 5733 5730 5727 5724 5721 5717 5714 5711 5709 5706 5704 5701 5699 5696 5693 5690 5686 5683
5741 5739 5739 5740 5742 5744 5747 5750 5752 5754 5756 5757 5758 5758 5758 5758 5758 5757 5755 5754 5751 5749 5746 5743 5740 5736 5733 5730 5727 5723 5720 5717 5714 5711 5708 5706 5703 5701 5698 5695 5693 5690 5688 5685
5743 5740 5739 5740 5742 5744 5747 5749 5752 5754 5755 5756 5757 5758 5758 5758 5757 5757 5755 5754 5751 5749 5746 5743 5740 5737 5733 5730 5727 5724 5721 5718 5715 5712 5710 5707 5704 5702 5699 5697 5694 5692 5689 5687
5745 5741 5740 5740 5741 5743 5746 5748 5751 5752 5754 5755 5756 5757 5758 5758 5757 5756 5755 5753 5751 5749 5747 5744 5741 5738 5734 5731 5728 5725 5723 5720 5717 5714 5712 5709 5707 5704 5702 5699 5697 5694 5692 5690
5747 5743 5740 5740 5740 5742 5745 5747 5749 5751 5752 5754 5755 5756 5757 5757 5757 5756 5755 5753 5752 5750 5747 5745 5742 5739 5736 5733 5730 5728 5725 5722 5720 5718 5715 5713 5710 5708 5705 5703 5700 5698 5695 5693
5749 5744 5741 5740 5740 5741 5743 5745 5747 5749 5750 5751 5753 5754 5755 5755 5756 5755 5755 5754 5752 5750 5748 5746 5743 5741 5738 5735 5733 5730 5728 5726 5724 5721 5719 5717 5714 5712 5709 5707 5704 5702 5699 5697
5750 5746 5742 5740 5739 5740 5741 5743 5744 5746 5748 5749 5750 5752 5753 5754 5754 5754 5754 5753 5752 5750 5749 5747 5745 5743 5740 5738 5736 5734 5732 5730 5727 5725 5723 5721 5719 5716 5714 5712 5709 5707 5704 5702
5751 5747 5743 5740 5738 5738 5738 5739 5741 5743 5744 5746 5747 5749 5750 5752 5752 5753 5753 5753 5752 5750 5749 5748 5746 5744 5743 5741 5739 5737 5735 5733 5731 5729 5727 5725 5723 5721 5718 5716 5714 5712 5710 5708
5750 5747 5744 5741 5738 5736 5735 5735 5737 5738 5740 5742 5744 5746 5747 5749 5750 5751 5752 5752 5751 5750 5749 5748 5747 5746 5744 5743 5741 5740 5738 5736 5734 5732 5731 5729 5727 5724 5722 5721 5719 5717 5715 5713
5749 5746 5743 5740 5737 5735 5733 5732 5732 5734 5735 5737 5739 5741 5743 5745 5747 5748 5750 5750 5750 5750 5749 5748 5747 5746 5745 5744 5743 5742 5740 5739 5737 5735 5734 5732 5730 5728 5726 5724 5723 5721 5719 5717
5746 5744 5741 5739 5736 5733 5731 5729 5729 5729 5730 5732 5734 5736 5739 5741 5743 5745 5747 5748 5748 5748 5748 5748 5747 5746 5746 5745 5744 5743 5742 5741 5740 5738 5736 5735 5733 5731 5729 5728 5726 5724 5722 5720
5742 5740 5739 5736 5734 5731 5729 5726 5725 5725 5726 5727 5729 5731 5733 5736 5739 5741 5743 5744 5746 5746 5747 5746 5746 5746 5746 5745 5745 5744 5744 5743 5741 5740 5739 5737 5736 5734 5732 5730 5729 5727 5725 5723
5736 5735 5734 5733 5731 5728 5726 5723 5722 5721 5721 5722 5724 5726 5728 5731 5733 5736 5738 5740 5742 5744 5744 5745 5745 5745 5745 5745 5745 5745 5744 5744 5743 5741 5740 5739 5738 5736 5734 5732 5731 5729 5727 5725
5728 5729 5728 5727 5726 5724 5722 5720 5718 5717 5717 5717 5719 5720 5723 5725 5728 5730 5733 5736 5738 5740 5741 5742 5743 5744 5744 5744 5744 5744 5744 5743 5743 5742 5741 5740 5738 5737 5735 5733 5732 5731 5729 5727